星链-6281 (STARLINK-6281 )

导读

STARLINK-6281是美国SpaceX公司星链星座的第二代Mini卫星,于2023年5月4日由猎鹰9号火箭发射升空,运行在近地轨道。星链计划旨在构建全球卫星互联网,该星配备相控阵天线与氪离子推进器,支持高速低延迟通信,为全球偏远地区提供互联网接入服务,目前处于在轨服役状态。

基本信息
目录编号:
56410
目录名称:
STARLINK-6281
国际标识:
2023-061AN
轨道中心:
EARTH
卫星名称:
星链-6281
卫星全名:
星链-6281 (STARLINK-6281 )
卫星状态:
在轨 (已飞行1226 天)
发射日期:
2023-05-04 UTC
国别 :
美国 (US)
星等 :
--
该卫星已列入 空间交会检测服务 Space Conjunction Data Service (SCDS) ,当前飞行风险评估等级: 高风险
轨道信息
数据来源 国际轨道数据 AOE轨道数据
星历时间 2026-09-11T06:59:35+0800
19小时前
查看轨道信息
2026-09-10T23:00:00+0800
1天前
查看轨道信息
半长轴 6861.198km 6861.191km
偏心率 0.0000825 0.0000028
轨道倾角 43.003° 43.002°
近地点辐角 291.757° 179.688°
升交点赤经 220.338° 222.222°
平近点角 68.320° 146.761°
近地点 482.494km 483.034km
远地点 483.628km 483.074km
周期 94.267分钟 94.267分钟
每日圈数 15.275762 15.275784
详细信息
固有亮度:
5
最大亮度:
2.5
卫星平台:
Starlink v1.5
覆盖范围:
全球
运营商:
太空探索技术公司
运营商所在国:
美国
制造商(研发单位):
太空探索技术公司
制造商所在国:
美国
使用方式:
暂无
卫星简介
星链(Starlink)计划是由太空探索技术公司(SpaceX)提出的一个巨型低轨卫星互联网星座项目,计划在2019年至2024年间在太空搭建由约1.2万颗卫星组成的“星链”网络,其中1584颗将部署在地球上空550千米处的近地轨道,并从2020年开始工作。该卫星仍在工作。
2D轨道图
3D轨道图
轨道高度分析图
轨道倾角分析图
轨道综合分析图
查看轨道综合分析图
交会数据列表
事件ID 空间交会对象 最接近时刻(TCA) 交会距离 交会风险概率(CRP) 交会风险指数(CRI) 操作
CDM_260913-121705-641006-703321
2026-09-13T
12:17:07+0000
0.105 km
中距离
1.106368E-3 极高风险 0.96
CDM_260913-081205-641005-953721
2026-09-13T
08:12:08+0000
0.957 km
远距离
2.428057E-5 中风险 0.63
CDM_260913-213205-641005-953721
2026-09-13T
21:32:30+0000
1.302 km
极远距离
8.343847E-6 低风险 0.53
CDM_260913-230605-641005-953721
2026-09-13T
23:06:40+0000
1.733 km
极远距离
3.337225E-6 低风险 0.45
CDM_260912-161005-641006-396821
2026-09-12T
16:10:07+0000
1.201 km
极远距离
2.616175E-6 低风险 0.43
CDM_260913-104205-641006-703321
2026-09-13T
10:42:57+0000
1.903 km
极远距离
2.546313E-6 低风险 0.43
CDM_260913-063705-641005-953721
2026-09-13T
06:37:59+0000
1.939 km
极远距离
2.450095E-6 低风险 0.43
CDM_260912-165705-641006-396821
2026-09-12T
16:57:12+0000
1.241 km
极远距离
2.353361E-6 低风险 0.42
CDM_260912-113905-641006-250721
2026-09-12T
11:39:46+0000
1.993 km
极远距离
1.983629E-6 低风险 0.41
CDM_260913-135105-641006-703321
2026-09-13T
13:51:16+0000
2.136 km
极远距离
1.91386E-6 低风险 0.41
与全量物体交会距离演化趋势
与全量物体交会风险概率演化趋势